Home   Weather   Fort Fairfield   Past weeks
Flag for USA

Past Weather in Fort Fairfield, Maine, USA — Yesterday and Last 2 Weeks

Now
0 °F

Clear.


Feels Like: 0 °F
Forecast: 30 / 4 °F
Wind: No wind

Location: Northern Maine Regional Airport

Current Time: Dec 12, 2019 at 9:39:33 pm

Latest Report: Dec 12, 2019 at 8:56 pm


Visibility: 10 mi

Pressure: 30.74 "Hg

Humidity: 83%

Dew Point: -4 °F

Location of Fort FairfieldLocation

Past Weather in Fort Fairfield — Graph

°F

Fort Fairfield Temperature Yesterday

Maximum temperature yesterday: 29 °F (at 12:56 am)
Minimum temperature yesterday: 4 °F (at 7:56 pm)
Average temperature yesterday: 16 °F

High & Low Weather Summary for the Past Weeks

 TemperatureHumidityPressure
High49 °F (Dec 10, 10:56 am)100% (Dec 9, 6:15 pm)30.73 "Hg (Dec 9, 6:15 pm)
Low-12 °F (Dec 2, 6:56 am)42% (Dec 12, 12:56 pm)29.23 "Hg (Dec 4, 12:31 am)
Average22 °F77%29.94 "Hg
* Reported Nov 27 7:56 pm — Dec 12 7:56 pm, Fort Fairfield. Weather by CustomWeather, © 2019

Note: Actual official high and low records may vary slightly from our data, if they occured in-between our weather recording intervals... More about our weather records

Fort Fairfield Weather History for the Previous 24 Hours

Scroll right to see more
 ConditionsComfort  
Time TempWeatherWind HumidityBarometerVisibility
7:56 pm
Thu, Dec 12
0 °FClear.3 mph79%30.73 "Hg10 mi
6:56 pm2 °FClear.No wind69%30.72 "Hg10 mi
5:56 pm9 °FClear.5 mph55%30.71 "Hg10 mi
4:56 pm11 °FClear.6 mph53%30.70 "Hg10 mi
3:56 pm12 °FClear.6 mph51%30.67 "Hg10 mi
2:56 pm15 °FSunny.8 mph44%30.64 "Hg10 mi
1:56 pm15 °FSunny.14 mph42%30.61 "Hg10 mi
12:56 pm15 °FSunny.16 mph42%30.60 "Hg10 mi
11:56 am14 °FSunny.17 mph44%30.60 "Hg10 mi
10:56 am13 °FSunny.12 mph49%30.60 "Hg10 mi
9:56 am12 °FSunny.18 mph51%30.58 "Hg10 mi
8:56 am12 °FSunny.17 mph51%30.55 "Hg10 mi
7:56 am11 °FSunny.17 mph56%30.50 "Hg10 mi
6:56 am12 °FClear.20 mph53%30.46 "Hg10 mi
5:56 am13 °FClear.21 mph59%30.41 "Hg10 mi
4:56 am14 °FClear.18 mph56%30.36 "Hg10 mi
3:56 am17 °FClear.22 mph56%30.32 "Hg10 mi
2:56 am18 °FClear.17 mph71%30.27 "Hg10 mi
2:35 am18 °FLight snow. Passing clouds.12 mph79%30.15 "Hg9 mi
1:56 am20 °FLight snow. Mostly cloudy.13 mph74%30.24 "Hg7 mi
12:56 am15 °FLight snow. Passing clouds.9 mph74%30.20 "Hg10 mi
11:56 pm
Wed, Dec 11
13 °FPassing clouds.5 mph84%30.21 "Hg10 mi
10:56 pm13 °FOvercast.8 mph84%30.20 "Hg10 mi
9:56 pm10 °FPassing clouds.6 mph92%30.22 "Hg10 mi
Weather by CustomWeather, © 2019

See weather overview

Advertising